Location: Gull Harbor
(47.1000°N, 122.9000°W)
Time: 17:13:42
(UTC-07:00)

ISS - Visible Passes

Search period start: 22 March 2019 00:00
Search period end: 01 April 2019 00:00
Orbit: 406 x 411 km, 51.6° (Epoch: 23 March)

Date Brightness Start Highest point End Pass type
(mag) Time Alt. Az. Time Alt. Az. Time Alt. Az.
22 Mar -3.5 20:53:43 10° SW 20:56:54 46° SSE 20:57:28 41° ESE visible
23 Mar -2.7 20:03:04 10° SSW 20:05:57 28° SE 20:08:50 10° E visible
23 Mar -3.0 21:39:05 10° WSW 21:41:48 51° WNW 21:41:48 51° WNW visible
24 Mar -3.9 20:47:57 10° WSW 20:51:15 88° NNW 20:53:11 23° ENE visible
24 Mar -0.9 22:24:58 10° WNW 22:25:57 17° WNW 22:25:57 17° WNW visible
25 Mar -3.7 19:56:56 10° SW 20:00:11 59° SSE 20:03:27 10° ENE visible
25 Mar -2.8 21:33:42 10° W 21:36:52 42° NNW 21:37:11 40° N visible
26 Mar -3.1 20:42:26 10° W 20:45:41 53° NNW 20:48:18 14° ENE visible
26 Mar -1.2 22:19:34 10° WNW 22:21:03 22° NW 22:21:03 22° NW visible
27 Mar -2.6 21:28:18 10° WNW 21:31:23 36° N 21:32:05 32° NNE visible
28 Mar -2.6 20:37:01 10° W 20:40:08 39° N 20:43:03 11° ENE visible
28 Mar -1.6 22:13:58 10° WNW 22:15:47 26° NW 22:15:47 26° NW visible
29 Mar -2.7 21:22:46 10° WNW 21:25:53 37° N 21:26:42 31° NE visible
29 Mar -0.3 22:59:24 10° WNW 22:59:25 10° WNW 22:59:25 10° WNW visible
30 Mar -2.5 20:31:31 10° WNW 20:34:36 35° N 20:37:35 11° ENE visible
30 Mar -2.1 22:08:15 10° WNW 22:10:18 33° NW 22:10:18 33° NW visible
31 Mar -3.1 21:17:06 10° WNW 21:20:18 46° NNE 21:21:10 36° ENE visible
31 Mar -0.5 22:53:42 10° WNW 22:53:54 11° WNW 22:53:54 11° WNW visible
